Temp
68 68 65 64 64 65 63 61 59 61 63 62 59 58 59 62 63 62 63 64 64 66 69 70 70 71 73 76 76 77 77 77 77 75 73 73 72 74 74 75 75 75 75 74
66 63 65 64 63 62 61 60 59 60 62 63 59 56 58 60 59 60 61 62 62 64 66 67 68 69 70 70 74 75 76 76 75 75 75 76 76 76 76 75 75 75 74 74
62 63 63 62 61 60 60 59 58 59 60 63 60 55 57 59 61 62 62 63 63 62 62 64 65 66 68 69 69 72 74 75 74 74 74 72 73 71 71 72 73 74 74 74
62 64 61 61 60 62 56 60 59 58 58 55 60 54 54 57 57 58 60 60 61 61 63 63 63 63 65 66 69 71 71 72 73 73 72 71 72 71 75 75 75 74 74 74
59 60 60 59 60 62 58 60 59 58 57 56 54 53 55 56 53 54 57 58 60 61 62 62 63 64 64 65 66 68 69 69 69 70 70 70 70 72 74 73 71 73 73 74
61 63 62 62 61 61 60 58 56 56 56 49 54 54 52 54 52 53 56 57 58 60 61 62 64 64 64 65 65 65 66 66 67 68 67 67 66 68 69 70 70 72 73 73
59 59 62 62 59 61 60 57 52 48 47 50 52 51 50 51 53 54 54 56 58 60 60 60 60 61 62 62 63 65 65 64 66 65 65 65 65 65 66 67 69 69 70 71
53 50 58 61 59 58 57 57 52 43 48 50 50 48 47 53 55 55 56 57 58 58 59 59 59 60 61 62 63 64 64 64 65 65 64 65 65 66 67 67 67 68 69 70
51 52 59 59 60 59 55 54 56 50 49 48 51 46 49 52 52 54 54 55 55 57 58 58 60 60 61 62 62 63 64 64 65 65 65 65 67 66 65 66 67 67 67 68
51 49 55 57 60 59 57 58 51 53 42 42 46 46 52 46 49 51 52 53 54 56 57 58 59 59 61 62 63 64 64 64 64 65 65 65 66 67 67 66 65 65 66 67
52 50 53 55 53 51 56 55 52 52 50 46 45 49 51 52 53 52 53 53 54 55 56 58 59 60 61 62 62 62 63 63 63 64 65 65 65 66 67 66 66 66 66 66
50 49 48 49 52 53 53 50 50 47 45 48 46 48 50 52 55 54 53 53 55 55 56 57 59 60 60 60 60 60 60 60 62 63 64 64 64 65 65 65 65 66 65 66
49 47 45 45 48 52 47 47 49 47 47 45 43 46 50 52 52 53 52 53 54 55 56 58 58 58 58 59 59 58 58 58 59 61 62 62 62 62 62 63 63 64 64 65
48 45 44 43 41 44 43 44 45 46 42 46 46 47 44 47 48 50 51 52 54 54 55 55 56 57 57 58 57 57 57 57 57 58 58 58 59 59 60 61 61 62 63 63
46 40 40 42 43 42 42 42 43 41 45 40 44 42 45 48 49 50 51 52 52 52 52 53 53 54 55 55 56 56 55 56 56 55 56 55 56 57 58 58 59 60 60 61
44 40 39 39 40 41 38 41 41 41 41 41 41 42 48 49 51 50 50 50 49 49 50 50 51 51 51 52 52 53 52 53 54 53 53 53 53 53 53 55 56 57 57 58
39 40 38 37 39 40 37 37 39 39 40 39 38 42 47 45 47 49 50 49 48 48 48 49 49 49 50 50 50 49 50 52 52 51 52 51 50 50 50 52 52 52 53 55
38 38 39 36 38 29 37 44 43 40 40 43 42 43 45 46 49 51 51 50 48 47 48 48 48 48 48 49 49 49 50 50 49 49 49 49 48 48 48 48 48 50 51 51
41 40 36 33 33 38 36 39 39 38 36 43 42 44 47 49 50 50 50 49 47 47 47 47 48 47 47 47 47 47 47 48 47 46 46 47 47 47 47 46 46 48 48 49
39 41 38 34 28 28 37 42 46 45 33 44 45 45 46 48 39 46 49 48 47 47 46 45 46 46 46 46 46 45 45 45 44 43 43 45 46 45 45 46 45 47 48 48
35 35 31 33 30 36 41 44 46 29 34 46 47 47 46 44 49 48 48 47 46 44 44 44 44 43 44 45 44 42 43 41 42 43 43 43 44 44 45 45 45 46 46 46
34 32 32 33 28 25 45 43 36 44 48 48 48 48 46 48 49 47 45 44 43 42 42 42 42 42 44 43 42 40 40 41 40 41 41 41 41 42 43 41 42 42 42 42
31 38 37 36 37 45 48 45 49 48 46 47 47 48 48 48 47 44 43 42 42 41 41 42 41 40 42 42 41 39 39 39 41 41 39 40 41 41 42 40 40 40 41 40
40 39 36 35 43 44 47 49 47 48 47 48 49 48 47 45 44 43 43 42 41 41 40 41 40 40 39 41 39 40 40 40 41 40 40 41 39 39 40 40 39 38 37 37
42 38 37 37 41 43 45 46 47 47 48 47 47 46 45 44 43 42 41 40 40 40 40 40 39 39 38 40 39 40 39 40 40 39 40 39 39 39 40 40 38 39 39 38
40 39 35 35 44 43 44 48 48 46 46 47 46 45 43 43 41 40 40 40 39 39 40 39 38 38 38 38 38 38 39 38 38 38 38 38 40 40 40 39 40 40 39 39
MSLP
1014.27 1013.65 1013.28 1013.70 1013.84 1013.80 1013.73 1013.74 1013.94 1014.66 1015.55 1015.74 1016.48 1017.40 1018.25 1018.64 1018.54 1018.39 1018.26 1018.14 1017.96 1017.66 1017.50 1017.12 1016.69 1016.18 1015.57 1015.46 1015.81 1016.09 1016.52 1017.04 1017.59 1018.01 1018.33 1018.61 1018.78 1019.06 1019.26 1019.47 1019.63 1019.87 1020.01 1020.25
1014.29 1013.85 1014.42 1014.57 1014.46 1014.21 1014.10 1013.99 1014.18 1015.07 1015.60 1015.57 1016.62 1017.62 1018.63 1019.06 1019.38 1019.57 1019.36 1019.09 1018.92 1018.55 1017.98 1017.61 1017.11 1016.71 1016.30 1015.96 1015.91 1016.26 1016.60 1017.03 1017.58 1017.90 1018.11 1018.27 1018.37 1018.53 1018.63 1018.90 1019.21 1019.46 1019.68 1019.88
1014.22 1014.73 1015.13 1015.05 1014.90 1014.58 1014.43 1014.28 1014.48 1014.65 1015.57 1015.86 1016.32 1017.16 1018.12 1019.23 1019.71 1019.97 1020.04 1020.07 1019.86 1019.46 1019.00 1018.52 1017.96 1017.44 1017.04 1016.71 1016.57 1016.54 1016.85 1017.12 1017.59 1017.96 1018.25 1018.63 1018.79 1019.06 1018.89 1018.86 1018.96 1018.99 1019.27 1019.46
1014.83 1015.23 1015.17 1015.06 1014.91 1014.94 1014.80 1015.15 1015.21 1015.29 1015.25 1014.97 1016.08 1015.75 1017.73 1018.83 1019.70 1020.34 1020.61 1020.69 1020.56 1020.31 1019.89 1019.51 1018.98 1018.44 1017.99 1017.62 1017.31 1017.20 1017.36 1017.50 1017.75 1018.11 1018.26 1018.24 1018.14 1018.05 1018.09 1018.33 1018.44 1018.58 1018.80 1018.93
1015.48 1015.39 1015.32 1015.13 1015.26 1015.35 1015.49 1015.67 1015.50 1015.41 1015.17 1015.33 1015.74 1016.17 1017.09 1018.84 1019.75 1020.80 1021.40 1021.68 1021.57 1021.24 1020.85 1020.35 1019.94 1019.54 1019.32 1018.86 1018.34 1018.04 1018.03 1018.17 1018.38 1018.45 1018.52 1018.37 1018.25 1018.16 1018.19 1018.47 1018.53 1018.45 1018.43 1018.51
1015.81 1016.11 1015.90 1015.63 1015.89 1015.95 1016.14 1015.96 1015.87 1015.66 1015.26 1014.97 1015.15 1015.97 1017.18 1018.69 1020.32 1021.43 1022.02 1022.26 1022.30 1022.11 1021.73 1021.37 1021.00 1020.60 1020.22 1019.94 1019.54 1019.24 1018.95 1018.84 1018.92 1018.90 1018.92 1018.83 1018.73 1018.60 1018.48 1018.34 1018.31 1018.22 1018.22 1018.19
1016.27 1016.21 1016.24 1016.24 1015.94 1016.21 1016.09 1015.61 1014.78 1014.77 1014.66 1014.16 1015.92 1016.81 1018.36 1020.26 1021.26 1022.02 1022.53 1022.84 1022.93 1022.78 1022.51 1022.22 1021.81 1021.43 1021.18 1020.88 1020.55 1020.17 1019.94 1019.68 1019.63 1019.52 1019.49 1019.37 1019.21 1019.04 1018.83 1018.65 1018.40 1018.32 1018.07 1017.95
1017.08 1016.77 1016.65 1016.65 1016.30 1016.01 1016.00 1015.76 1014.85 1014.27 1014.06 1014.70 1016.48 1017.14 1019.43 1021.18 1022.25 1022.96 1023.23 1023.35 1023.42 1023.37 1023.28 1023.13 1022.88 1022.44 1022.06 1021.80 1021.49 1021.13 1020.83 1020.60 1020.47 1020.23 1020.16 1020.03 1019.76 1019.48 1019.27 1019.16 1018.88 1018.59 1018.37 1018.11
1018.35 1017.58 1017.46 1017.40 1017.12 1016.97 1016.49 1016.11 1016.28 1015.52 1015.69 1015.60 1016.14 1018.77 1020.66 1021.65 1022.49 1023.13 1023.52 1023.74 1023.84 1023.84 1023.86 1023.76 1023.64 1023.36 1022.99 1022.64 1022.28 1021.92 1021.59 1021.38 1021.21 1021.06 1020.81 1020.52 1020.25 1020.06 1019.91 1019.69 1019.41 1019.12 1018.83 1018.50
1020.13 1018.80 1018.05 1017.84 1017.78 1017.68 1017.09 1017.21 1016.68 1016.14 1015.49 1015.30 1016.39 1017.74 1018.31 1021.13 1022.23 1023.25 1023.70 1024.05 1024.33 1024.39 1024.32 1024.20 1024.16 1024.06 1023.85 1023.57 1023.15 1022.79 1022.40 1022.08 1021.93 1021.64 1021.35 1021.12 1020.92 1020.64 1020.37 1020.11 1019.84 1019.54 1019.17 1018.77
1021.11 1020.14 1018.76 1018.49 1018.50 1018.44 1018.00 1017.64 1017.60 1017.33 1016.91 1016.14 1016.52 1017.34 1019.82 1020.56 1021.96 1022.92 1023.81 1024.39 1024.71 1024.86 1024.80 1024.71 1024.58 1024.47 1024.38 1024.20 1023.85 1023.47 1023.07 1022.78 1022.51 1022.24 1021.90 1021.65 1021.40 1021.11 1020.80 1020.55 1020.26 1019.89 1019.46 1019.07
1022.28 1021.29 1019.63 1019.42 1019.98 1019.96 1019.74 1019.44 1019.13 1018.29 1017.83 1018.10 1018.53 1019.24 1021.21 1021.80 1022.44 1023.41 1024.15 1024.73 1025.09 1025.28 1025.25 1025.20 1025.04 1024.82 1024.73 1024.62 1024.45 1024.21 1023.95 1023.65 1023.31 1022.94 1022.52 1022.20 1021.94 1021.61 1021.24 1020.95 1020.65 1020.20 1019.82 1019.35
1023.46 1022.11 1020.81 1020.49 1021.04 1020.71 1020.64 1021.02 1020.79 1020.50 1020.14 1018.97 1019.21 1020.04 1022.02 1022.68 1023.41 1024.02 1024.54 1025.04 1025.36 1025.59 1025.52 1025.40 1025.31 1025.23 1025.13 1025.16 1025.06 1024.89 1024.68 1024.45 1024.14 1023.64 1023.13 1022.81 1022.53 1022.22 1021.85 1021.48 1021.11 1020.69 1020.24 1019.74
1024.53 1023.52 1022.40 1021.70 1022.19 1022.48 1022.03 1022.24 1022.25 1021.83 1021.00 1020.04 1020.23 1020.85 1022.66 1023.21 1023.72 1024.48 1025.06 1025.45 1025.69 1025.89 1025.93 1025.93 1025.86 1025.73 1025.62 1025.61 1025.56 1025.41 1025.18 1025.02 1024.72 1024.22 1023.75 1023.39 1023.14 1022.84 1022.47 1022.05 1021.59 1021.13 1020.65 1020.17
1025.01 1024.33 1024.16 1023.46 1023.45 1023.56 1023.34 1023.26 1023.19 1023.04 1022.41 1022.17 1021.88 1022.52 1023.10 1023.82 1024.42 1024.98 1025.57 1025.93 1026.09 1026.25 1026.37 1026.43 1026.39 1026.29 1026.16 1026.06 1026.00 1025.83 1025.61 1025.35 1025.06 1024.61 1024.21 1023.99 1023.71 1023.34 1022.94 1022.46 1021.99 1021.51 1021.04 1020.54
1026.15 1025.28 1025.06 1024.19 1024.22 1024.20 1024.06 1024.02 1024.11 1024.05 1023.83 1023.66 1023.70 1023.62 1024.52 1024.86 1025.15 1025.45 1025.85 1026.26 1026.46 1026.66 1026.89 1026.98 1027.04 1026.98 1026.81 1026.70 1026.57 1026.26 1026.04 1025.76 1025.37 1024.87 1024.51 1024.40 1024.09 1023.70 1023.35 1022.92 1022.36 1021.83 1021.33 1020.80
1026.78 1026.28 1025.48 1024.42 1024.66 1024.38 1024.20 1024.58 1024.69 1024.92 1025.03 1025.03 1024.43 1024.84 1025.19 1025.32 1025.49 1025.71 1025.99 1026.50 1026.80 1027.06 1027.28 1027.36 1027.51 1027.49 1027.36 1027.27 1027.07 1026.74 1026.49 1026.13 1025.62 1025.15 1024.82 1024.66 1024.37 1023.98 1023.62 1023.17 1022.64 1022.25 1021.62 1021.01
1027.46 1026.88 1026.35 1025.16 1024.98 1024.61 1025.14 1025.43 1025.58 1025.67 1025.96 1025.91 1025.80 1025.81 1025.83 1025.90 1025.97 1026.14 1026.46 1026.78 1027.14 1027.54 1027.68 1027.83 1027.94 1027.92 1027.88 1027.71 1027.41 1027.13 1026.69 1026.21 1025.85 1025.39 1025.10 1024.83 1024.55 1024.19 1023.77 1023.33 1022.90 1022.37 1021.83 1021.30
1028.07 1027.49 1026.63 1025.93 1025.26 1024.70 1025.44 1025.81 1025.96 1025.86 1026.34 1026.57 1026.44 1026.35 1026.18 1026.18 1026.16 1025.90 1026.67 1027.29 1027.77 1028.12 1028.38 1028.47 1028.45 1028.33 1028.09 1027.90 1027.74 1027.33 1026.79 1026.40 1026.01 1025.75 1025.48 1025.16 1024.73 1024.15 1023.75 1023.35 1022.88 1022.44 1021.94 1021.36
1028.46 1028.00 1027.27 1026.67 1025.82 1024.69 1025.17 1026.09 1026.34 1026.35 1025.85 1026.52 1026.57 1026.40 1026.21 1026.16 1025.91 1025.56 1026.74 1027.57 1028.06 1028.40 1028.59 1028.67 1028.71 1028.53 1028.31 1028.20 1028.06 1027.63 1027.17 1026.86 1026.58 1026.41 1026.05 1025.56 1024.98 1024.44 1023.85 1023.38 1022.99 1022.56 1022.00 1021.38
1028.12 1027.74 1027.27 1026.55 1026.09 1025.34 1026.10 1026.41 1026.53 1026.39 1026.31 1026.38 1026.40 1026.31 1026.27 1026.00 1025.74 1026.37 1027.18 1027.68 1028.29 1028.74 1028.97 1029.09 1028.92 1028.73 1028.61 1028.50 1028.40 1027.94 1027.61 1027.37 1027.28 1026.90 1026.35 1025.80 1025.28 1024.63 1024.11 1023.66 1023.16 1022.54 1022.03 1021.61
1027.68 1027.24 1026.86 1026.66 1026.26 1025.81 1026.23 1026.39 1026.44 1026.01 1026.13 1026.05 1026.12 1026.14 1026.06 1025.98 1026.15 1026.77 1027.37 1027.94 1028.46 1028.79 1029.04 1029.19 1029.04 1028.87 1028.73 1028.82 1028.65 1028.31 1028.06 1027.94 1027.69 1027.04 1026.40 1025.93 1025.47 1024.97 1024.47 1024.00 1023.48 1022.97 1022.49 1021.96
1027.92 1027.17 1026.85 1026.60 1025.73 1025.92 1026.06 1026.31 1026.28 1026.46 1026.34 1026.26 1026.12 1026.01 1025.94 1025.92 1026.39 1027.19 1027.70 1028.18 1028.54 1028.91 1029.09 1029.23 1029.22 1029.07 1028.89 1028.91 1028.84 1028.61 1028.43 1028.23 1027.59 1026.97 1026.60 1026.13 1025.63 1025.28 1024.80 1024.34 1023.87 1023.45 1023.06 1022.60
1027.59 1027.89 1027.42 1027.08 1025.92 1025.73 1025.86 1025.84 1026.31 1026.39 1026.34 1026.24 1026.17 1026.18 1026.30 1026.46 1026.92 1027.36 1027.81 1028.21 1028.63 1028.93 1029.11 1029.26 1029.18 1028.95 1028.99 1029.03 1029.08 1028.79 1028.56 1028.25 1027.57 1027.07 1026.64 1026.19 1025.97 1025.53 1025.12 1024.89 1024.49 1024.05 1023.77 1023.34
1027.52 1027.93 1026.84 1026.38 1025.95 1025.91 1025.67 1025.83 1026.06 1026.12 1026.19 1026.19 1026.30 1026.48 1026.60 1026.85 1027.07 1027.50 1027.81 1028.24 1028.57 1028.85 1029.06 1029.20 1029.14 1029.06 1029.11 1029.14 1029.03 1028.94 1028.65 1028.27 1027.57 1027.13 1026.76 1026.48 1026.18 1025.81 1025.38 1025.05 1024.94 1024.59 1024.48 1024.19
1027.31 1026.56 1026.31 1025.37 1025.46 1025.65 1025.43 1025.68 1025.91 1025.93 1025.89 1025.90 1026.02 1026.37 1026.83 1027.17 1027.39 1027.81 1028.01 1028.33 1028.58 1028.68 1028.92 1029.05 1029.11 1029.15 1029.13 1029.14 1028.95 1028.96 1028.77 1028.42 1027.86 1027.25 1026.82 1026.65 1026.12 1025.85 1025.53 1025.23 1024.85 1024.86 1024.96 1024.74
Wind_Speed
2 5 3 4 3 4 3 1 1 3 4 6 10 10 11 12 14 15 15 15 16 16 15 14 13 11 5 7 10 11 11 12 9 8 8 7 8 7 7 7 9 9 8 8
5 2 4 3 4 4 3 2 4 5 2 4 8 10 10 12 12 14 15 16 17 17 18 18 16 14 11 3 6 8 9 10 9 7 6 5 5 6 6 6 8 9 9 9
3 5 1 3 4 5 2 3 4 1 5 4 9 6 5 8 11 12 15 15 17 18 19 19 19 17 14 11 4 4 6 7 8 8 5 4 3 3 4 5 6 8 10 9
2 2 2 4 3 4 2 1 2 5 5 2 7 2 6 7 10 13 14 15 16 18 18 19 19 19 18 15 11 8 4 3 4 6 6 8 6 5 2 3 3 4 8 10
5 1 2 2 2 2 4 2 1 2 5 4 8 6 10 4 7 10 12 14 15 16 17 19 20 20 19 17 15 12 11 9 6 1 4 4 6 5 4 4 5 5 5 7
2 1 2 3 3 2 8 3 2 2 3 6 5 9 8 4 6 8 9 12 13 14 16 17 17 18 19 17 17 16 16 14 10 7 4 4 5 6 5 5 5 5 5 5
1 2 1 1 3 4 4 5 4 5 6 2 2 6 9 8 7 8 9 10 11 12 14 15 17 17 18 18 18 15 17 17 16 15 13 10 6 5 5 6 5 6 5 5
3 5 2 4 3 3 1 4 5 5 3 4 4 5 7 8 9 9 8 9 10 11 12 14 14 14 15 16 16 16 17 16 15 15 14 12 12 8 7 7 5 4 5 6
5 2 1 4 3 4 4 4 4 4 0 4 6 5 6 9 10 9 8 8 10 10 11 13 14 13 14 15 15 15 15 15 15 14 12 12 12 12 10 10 8 7 7 6
4 4 2 2 2 5 3 3 4 3 4 5 5 4 3 15 13 10 8 8 8 8 10 11 11 13 12 13 12 14 14 14 14 13 12 10 11 11 10 9 10 10 9 10
4 3 3 3 5 5 0 2 0 4 4 5 5 4 6 13 13 12 9 7 6 8 9 10 10 11 11 12 13 13 14 14 14 13 12 11 11 11 10 10 10 10 10 10
4 4 4 2 4 2 2 3 4 5 2 0 4 1 3 2 10 9 9 6 6 7 7 8 9 10 11 12 12 13 13 13 13 12 12 11 11 11 11 10 11 11 11 10
5 2 4 4 4 3 3 4 3 2 2 8 7 3 3 7 9 8 8 6 6 5 6 7 8 10 11 11 12 12 12 12 12 12 11 11 11 11 11 11 11 11 11 10
3 3 6 5 5 4 2 2 4 5 5 8 8 4 6 8 9 9 7 4 5 6 7 8 9 10 10 11 11 12 12 12 12 11 11 10 11 11 11 11 11 11 11 11
3 3 3 5 5 4 7 9 7 8 9 8 8 6 3 7 7 7 5 4 4 6 8 9 10 11 12 12 12 12 12 12 13 11 11 10 11 11 11 11 11 11 11 10
4 1 2 3 1 4 8 7 7 6 6 10 7 7 2 4 6 6 4 3 4 5 7 8 9 11 12 13 14 13 13 13 13 11 11 11 11 11 11 12 13 12 12 12
3 1 1 2 4 7 9 3 3 3 1 3 4 6 3 4 4 2 4 1 2 4 6 8 9 11 11 12 12 13 13 13 12 11 11 11 12 12 12 12 12 12 13 13
0 1 2 3 5 5 7 2 2 5 4 3 4 6 4 1 2 1 2 2 2 4 7 8 9 10 10 11 11 12 12 12 12 12 12 12 13 13 12 12 12 12 12 12
2 2 2 4 4 4 6 6 4 5 4 3 1 3 5 4 7 7 4 2 3 5 6 7 8 10 10 10 12 12 12 12 12 13 14 14 15 14 14 13 12 12 12 11
4 1 4 2 4 4 6 5 0 3 7 5 2 6 8 7 9 7 6 2 1 4 6 8 9 9 9 10 11 12 12 12 13 14 15 14 14 13 13 13 12 11 11 11
3 3 7 6 5 4 6 4 4 6 4 5 9 9 12 13 11 3 2 0 3 5 7 8 8 8 8 9 11 11 11 12 13 13 12 12 12 12 11 11 10 10 10 9
4 3 4 3 5 7 7 3 5 9 13 11 10 14 15 14 8 5 2 3 4 5 5 5 7 7 7 8 8 10 11 12 12 12 11 10 11 9 8 10 9 10 9 9
5 6 3 5 2 5 6 10 10 8 12 14 14 11 9 8 5 2 4 3 4 4 5 5 6 6 6 7 7 9 10 10 11 10 10 9 9 9 9 9 9 8 10 8
5 4 5 4 7 13 10 13 7 6 7 9 9 9 4 6 4 4 5 4 4 4 4 4 5 5 6 7 7 8 9 9 9 8 9 8 9 8 8 7 7 7 8 8
6 4 6 10 14 12 14 6 5 8 8 9 7 7 6 6 6 5 5 5 4 4 3 4 5 5 7 7 7 7 8 9 8 7 7 8 7 8 7 6 7 7 8 9
6 7 5 6 6 8 13 10 9 12 12 13 10 9 6 6 6 5 5 4 4 4 4 5 5 6 6 6 6 6 7 8 7 6 5 6 5 5 6 6 5 9 11 13
Wind_Direction
43 229 139 86 59 73 103 97 343 88 81 80 91 81 49 35 37 32 29 26 21 17 15 15 14 12 357 212 212 210 202 204 196 197 199 207 212 216 219 220 223 222 223 218
207 141 107 98 149 158 175 200 145 121 92 153 133 94 71 50 46 36 28 28 23 18 20 19 22 27 29 0 212 212 207 203 199 201 205 218 215 226 225 222 224 224 224 224
326 88 99 242 177 200 198 260 177 136 127 106 158 135 116 71 59 50 43 35 32 27 22 21 24 30 34 41 43 203 204 201 205 210 199 213 216 217 218 225 233 225 227 226
74 99 181 166 196 241 226 159 161 156 217 234 219 133 154 98 65 46 38 36 33 30 32 31 30 34 35 39 48 62 86 170 204 203 218 227 242 253 239 269 234 226 222 226
87 140 170 216 34 227 69 160 169 217 239 249 186 252 111 195 79 52 42 37 35 35 35 36 36 39 41 40 45 57 65 65 56 282 271 272 260 273 285 272 274 254 243 236
50 339 293 32 79 30 136 149 120 156 213 235 137 237 144 149 108 88 64 51 43 40 39 40 41 40 43 43 48 51 58 56 52 51 33 340 309 308 302 294 286 274 267 257
78 81 72 324 196 134 207 224 213 203 200 24 126 211 58 118 105 99 85 63 53 49 46 40 39 40 40 41 43 47 50 52 52 53 48 36 15 352 321 320 311 306 286 268
311 172 353 3 354 346 274 298 304 291 274 91 140 217 116 122 116 111 97 83 69 57 50 45 42 44 44 44 43 43 43 45 43 46 47 44 40 42 37 25 360 333 313 303
328 137 20 32 337 314 124 239 7 297 38 258 115 120 148 157 145 138 112 88 69 61 51 45 44 40 41 43 42 41 42 42 40 38 38 39 38 37 31 26 21 13 9 348
46 278 61 26 247 77 321 71 236 191 268 258 166 214 106 180 170 153 137 100 79 65 53 49 45 40 37 38 38 41 40 41 37 34 33 31 29 27 26 23 19 14 10 4
338 270 114 226 23 10 314 203 59 300 294 294 295 119 355 177 172 165 140 108 77 57 47 46 43 43 42 38 34 31 30 30 27 25 23 25 24 21 20 19 12 8 4 5
19 317 278 9 358 338 329 38 353 280 144 353 313 66 77 206 165 156 137 111 78 55 45 42 39 37 33 31 29 27 25 21 16 12 12 16 14 11 12 11 6 2 1 1
2 185 268 181 167 161 61 53 56 25 280 257 278 79 94 137 152 152 146 117 80 56 46 40 34 31 27 23 19 15 16 14 10 4 3 7 8 5 2 1 358 357 355 355
239 282 284 308 22 343 267 314 330 298 266 292 262 311 172 171 164 157 142 110 74 54 40 32 26 22 17 12 7 3 2 359 356 354 356 360 359 356 354 352 351 350 348 347
29 268 303 294 299 292 278 286 285 266 281 268 349 329 172 172 161 140 119 86 57 38 26 20 12 5 1 359 355 354 352 349 347 344 344 349 344 343 341 340 339 338 340 338
356 165 327 279 356 304 280 278 270 261 266 265 281 259 102 142 142 159 118 59 36 28 16 4 0 357 353 349 344 342 345 343 338 338 336 341 338 336 337 334 329 328 326 324
354 291 234 230 314 302 243 209 185 119 67 294 278 61 157 137 169 219 226 328 4 7 358 357 353 346 345 342 338 338 336 333 336 335 338 337 336 335 333 329 329 328 322 323
180 222 275 307 298 236 82 101 110 107 73 68 106 103 88 95 332 297 141 292 340 356 345 345 339 338 339 336 336 332 332 334 335 334 336 335 333 330 330 330 328 325 324 324
220 253 218 280 263 328 176 175 192 220 134 73 16 306 297 293 293 241 163 98 16 351 345 334 335 332 334 342 340 334 333 335 332 339 335 333 328 325 325 326 325 327 323 320
161 15 277 211 265 274 95 135 244 200 230 136 360 308 285 271 264 282 145 153 330 347 346 339 339 333 341 346 343 334 337 336 341 338 330 327 327 325 325 325 330 320 323 321
189 212 239 245 264 269 121 66 149 235 76 284 305 299 292 274 266 30 135 348 7 352 341 338 332 334 339 346 338 335 337 343 337 332 329 329 330 330 336 332 329 329 333 334
239 240 215 211 234 249 162 159 229 337 308 296 278 303 289 274 252 227 264 329 336 336 338 340 330 334 341 343 339 341 341 342 337 326 335 341 340 345 348 346 353 360 1 355
248 234 303 244 346 143 187 293 295 300 289 295 292 279 273 270 241 244 284 297 321 326 329 333 328 318 331 341 341 338 342 338 334 345 348 353 4 3 4 12 11 13 15 18
224 209 246 276 235 262 284 286 273 280 269 293 284 286 260 260 252 271 281 299 304 310 312 317 306 317 330 339 328 340 342 336 330 354 353 359 16 16 21 33 22 29 21 19
295 174 241 256 271 277 263 274 256 300 281 292 275 255 256 259 259 276 275 273 272 277 284 301 305 311 311 322 318 336 341 339 328 352 347 358 16 8 20 32 32 27 36 22
193 226 223 262 284 283 283 296 294 290 283 284 272 239 240 241 261 249 261 262 258 267 270 288 294 296 296 311 309 331 341 340 334 340 343 7 360 12 18 13 16 59 32 18